Location: Coupvray
(48.8929°N, 2.7967°E)
Time: 13:33:15
(UTC+00:00)

Altair 2 - Pass Details

Date: 20 January 2021
Orbit: 837 x 949 km, 90.2° (Epoch: 28 February)

Event Time Altitude Azimuth Distance (km) Brightness Sun altitude
Rises 04:20:35 0° 18° (NNE) 3,443 11.1 -31.2°
Reaches altitude 10° 04:24:56 10° 50° (NE) 2,524 10.8 -30.5°
Maximum altitude 04:26:51 12° 70° (ENE) 2,414 10.9 -30.2°
Drops below altitude 10° 04:28:47 10° 90° (E) 2,543 11.1 -29.8°
Sets 04:33:12 0° 122° (ESE) 3,506 11.7 -29.1°
